Location: Le Hiès Ruisseau
(43.3000°N, 0.4500°W)
Time: 06:49:41
(UTC+00:00)

NOSS 3-4 (C) - Pass Details

Date: 28 January 2023
Orbit: 830 x 1382 km, 63.4° (Epoch: 24 March)

Event Time Altitude Azimuth Distance (km) Brightness Sun altitude
Rises 17:36:00 0° 324° (NW) 3,784 6.8 -5.6°
Reaches altitude 10° 17:38:30 10° 327° (NNW) 2,904 6.2 -6.0°
Maximum altitude 17:45:29 70° 51° (NE) 1,246 3.9 -7.2°
Drops below altitude 10° 17:53:24 10° 135° (SE) 3,286 6.0 -8.6°
Sets 17:56:23 0° 138° (SE) 4,311 6.6 -9.1°
